Regional Weather Roundup
Issued by NWS Memphis, TN

Home | Current Version | Previous Version | Text Only | Print | Product List | Glossary On
Versions: 1 2 3 4 5 6 7 8 9 10 11 12 13 14 15 16 17 18 19 20 21 22 23 24 25 26 27 28 29 30 31 32 33 34 35 36 37 38 39 40 41 42 43 44 45 46 47 48 49 50
000
ASUS44 KMEG 012210
RWRMEG
MEMPHIS CWA HOURLY WEATHER ROUNDUP
NATIONAL WEATHER SERVICE MEMPHIS TN
500 PM CDT WED OCT 01 2014

...WEST TENNESSEE...

CITY           SKY/WX    TMP DP  RH WIND       PRES   REMARKS
MEMPHIS INTL   CLOUDY    87  64  46 SE9       29.88S
NWS MEMPHIS      N/A     84 N/A N/A MISG        N/A
JACKSON        SUNNY     85  61  44 S5        29.89S
LEXINGTON      SUNNY     84  57  39 S7        29.90S
SAVANNAH       MOSUNNY   88  55  33 S8        29.90F
DYERSBURG      MOSUNNY   82  57  42 S6        29.88S
UNION CITY     MOSUNNY   82  63  51 S8        29.87S
PARIS          SUNNY     84  59  42 S8        29.90S
HUNTINGDON     SUNNY     84  57  39 S6        29.90S


...EASTERN ARKANSAS...

CITY           SKY/WX    TMP DP  RH WIND       PRES   REMARKS
JONESBORO      MOSUNNY   82  68  62 S20G31    29.85R
WEST MEMPHIS   CLOUDY    75  72  90 CALM      29.86F
BATESVILLE     MOSUNNY   88  64  45 S13G20    29.82R
NEWPORT        PTSUNNY   78  68  71 SE16      29.86R
WALNUT RIDGE   SUNNY     82  66  57 S22G28    29.82R
BLYTHEVILLE    PTSUNNY   85  64  49 S9        29.87R
SEARCY         SUNNY     81  73  76 S12       29.84
STUTTGART      MOSUNNY  N/A N/A N/A E7        29.84F
PINE BLUFF     CLOUDY    78  71  79 E7        29.82F
MONTICELLO     MOSUNNY   89  65  44 S13       29.82F HX  91


...NORTH MISSISSIPPI...

CITY           SKY/WX    TMP DP  RH WIND       PRES   REMARKS
TUPELO         SUNNY     87  56  34 S8        29.90R
OXFORD         MOSUNNY   82  63  51 SE5       29.91S
OLIVE BRANCH   PTSUNNY   84  64  51 S9        29.89S
TUNICA         CLOUDY    82  64  54 E8        29.87S
CLARKSDALE     CLOUDY    88  64  45 SE9       29.86S
CORINTH        SUNNY     86  55  35 S7        29.90S
GRENADA        SUNNY     88  61  40 SE8       29.88S
GREENWOOD      SUNNY     88  64  44 SW9       29.87R
COLUMBUS       SUNNY     87  59  38 S6        29.90S
STARKVILLE     FAIR      88  59  37 SE6       29.89S
GOLDEN TRIANGL MOSUNNY   88  59  37 SE7       29.89S


...SOUTHEAST MISSOURI...

CITY           SKY/WX    TMP DP  RH WIND       PRES   REMARKS
WEST PLAINS    PTSUNNY   82  66  58 SE10      29.85R
POPLAR BLUFF   MOSUNNY   84  62  47 S12       29.83R
CAPE GIRARDEAU MOSUNNY   84  62  47 S9        29.85R


...NORTHWEST ALABAMA...

CITY           SKY/WX    TMP DP  RH WIND       PRES   REMARKS
MUSCLE SHOALS  MOSUNNY   87  54  32 S6        29.93S


...MIDDLE TENNESSEE...

CITY           SKY/WX    TMP DP  RH WIND       PRES   REMARKS
NASHVILLE      MOSUNNY   86  55  34 E7        29.93S
CLARKSVILLE    SUNNY     86  56  35 S8        29.90F
COLUMBIA       SUNNY     86  59  39 S5        29.92S
LEWISBURG      SUNNY     88  57  34 SW5       29.93F


...WESTERN KENTUCKY...

CITY           SKY/WX    TMP DP  RH WIND       PRES   REMARKS
PADUCAH        MOSUNNY   84  60  44 S6        29.86S
FORT CAMPBELL  SUNNY     86  54  33 S8        29.90F


...CENTRAL ARKANSAS...

CITY           SKY/WX    TMP DP  RH WIND       PRES   REMARKS
LITTLE ROCK    MOSUNNY   87  69  54 S10       29.82S HX  91


SKY/WX REPORTED AS FAIR MEANS FEW OR NO CLOUDS BELOW
12 THOUSAND FEET.



USA.gov is the U.S. government's official web portal to all federal, state and local government web resources and services.